OPS 4682 DEB, 59150

Orbit data source: Space-Track

OPS 4682 DEB, 59150 is space debris in LEO originally from a launch on Sat, 03 Apr 1965 UTC launched from the Air Force Western Test Range (AFWTR). Debris objects in space refer to the collection of defunct objects orbiting the Earth. Examples of debris include non-operational satellites, rocket bodies, and fragments generated from explosions, collisions, or faulty payload assembly.

Loading next visibility...
Identifier
59150, 1965-027HS
Orbit
LEO
Country
Flag of USUS
Related business
Manufacturer
Unknown
Mission
Spacecraft
Bus & Motor
Unknown
Mass
Unknown
Launch date (UTC)
1965-04-03 (61 years ago)
Launch vehicle
Unknown
Launch site
Air Force Western Test Range (AFWTR)
Object type
Payload
Rocket body
Debris
Shape & HBR
Unknown shape, 0.1 m
Radar Cross Section
Medium (>0.1 m² and <1 m²)

Expand to show TLE details & history
Last TLE update: 2 weeks ago

TLE from 2 weeks ago
0 OPS 4682 DEB
1 59150U 65027HS  26242.79792975  .00000128  00000-0  40535-3 0  9992
2 59150  90.2471   5.8832 0028666 161.1289 199.0902 12.98917266513692
Epoch: 2026-08-30T19:09Z
TLE epoch observation values (Epoch: 2026-08-30T19:09:01.130Z)
Latitude
0.00001°
Longitude
99.64014°
Altitude
1,289.933 km
Speed
7.201 km/s
True Right ascension
00h 23m 31s
True Declination
0° 00' 00"
Sunlit
Object was in full shadow at epoch
Visualization orbit readout
Latitude
Unknown
Longitude
Unknown
Altitude
Unknown
Speed
Unknown
Apparent Right ascension
Unknown
Apparent Declination
Unknown
Sunlit
N/A
Visualization observer readout
Local Sidereal Time
15:50:14
Azimuth
Unknown
Elevation
Unknown
Doppler factor
Unknown
Orbital elements
Apogee altitude
1,285.366 km
Perigee altitude
1,241.555 km
Semi-major axis
7,641.597 km
Eccentricity
0.00287
Inclination
90.2471°
RAAN
5.8832°
Arg. of periapsis
161.1289°
True anomaly
198.98313°
Mean anomaly
199.0902°
Eccentric anomaly
199.03663°
Mean motion
3.24913 °/min
Orbital period
110.8 mins
BSTAR
0.00040535
Loading maneuver chart data...
Computing Atmospheric mass density...
Loading historical data...
Loading historical data...
Loading historical data...
Loading historical data...
Loading historical data...
Loading historical data...
Loading historical data...

Documentation

Showing up to 5 results
|